Location: Brno
(49.2000°N, 16.6330°E)
Time: 10:36:28
(UTC+02:00)

ISS - Pass Details

Date: 25 May 2021
Orbit: 417 x 422 km, 51.6° (Epoch: 13 June)

Event Time Altitude Azimuth Distance (km) Brightness Sun altitude
Rises 23:49:24 0° 287° (WNW) 2,369 0.5 -18.4°
Reaches altitude 10° 23:51:42 10° 275° (W) 1,502 -0.7 -18.5°
Enters shadow 23:53:41 23° 244° (WSW) 936 -2.1 -18.6°
